Погода в Романовке

Россия / Воронежская область     51°21′36″N   40°07′29″E
темп.,
°C
ветер,
м/с
пор.,
м/с
влажн.,
%
обл.,
%
осадки,
мм/ч
давл.,
гПа
погр.,
м
12 апреля, пн
пн1200:00+8св51089100 0.0 1027362
03:00+7св51195100 0.0 1026273
06:00+7св51195100 0.0 1026263
09:00+12всв6107358 0.0 1025381
12:00+20в71140100 0.0 1024940
15:00+22вюв81032100 0.0 10241417
18:00+20вюв61241100 0.0 1024459
21:00+15вюв6145148 0.0 1025343
13 апреля, вт
вт1300:00+13вюв5145424 0.0 1025282
03:00+11вюв51259100 0.0 1026260
06:00+9вюв4116889 0.0 1026221
09:00+16вюв6124370 0.0 1026542
12:00+20юв81226100 0.0 10251288
15:00+21юв811250 0.0 10241827
18:00+19юв611334 0.0 1023481
21:00+14вюв513465 0.0 1024300
14 апреля, ср
ср1400:00+12вюв4125383 0.0 1023256
03:00+10вюв41164100 0.0 1022211
06:00+9в397120 0.0 1022184
09:00+15юв57455 0.0 1021475
12:00+19юв67265 0.0 10201615
15:00+20ююв5723100 0.0 10181973
18:00+19вюв3435100 0.0 1017111
21:00+14вюв4114973 0.0 1018222
15 апреля, чт
чт1500:00+12вюв495599 0.0 1017166
03:00+10в356293 0.0 101791
06:00+10вюв3567100 0.0 101688
09:00+14в4552100 0.0 1016342
12:00+19юв6935100 0.0 10151834
15:00+19ююв6938100 0.0 10142393
18:00+17ююз2353100 0.1 101486
21:00+15ю225576 0.2 101430
16 апреля, пт
пт1600:00+14юв2262100 0.0 101321
03:00+13ююв356690 0.0 1014104
06:00+11юз117373 0.0 101416
09:00+15юз45595 0.0 1015713
12:00+18ю46430 0.0 10151739
15:00+19ю453517 0.0 10152265
18:00+18ююв343973 0.0 1015561
21:00+14ююз235231 0.0 101726